OEROM LSGG-LOWW

Flight info

Callsign OEROM
Flight time N/A
Altitude 34000
Route SOSAL1J/22 SOSAL N871 KORED DCT BERSU DCT DITON N871 DEGES DCT GAMSA/N0406F410 DCT TULSI DCT INPUL DCT NEMAL NEMAL2W
Aircraft C25B/M-SDE2E3FGHRWXY/LB1

Departure

Time 2026-05-06 19:35
Airport Geneva International Airport (LSGG)

Arrival

Time N/A
Airport Vienna International Airport (LOWW)
Time Latitude Longitude Altitude Speed Heading
2026-05-06 19:00 46.23633 6.10017 1435 ft 0 kts 137°
2026-05-06 19:27 46.23630 6.10022 1421 ft 0 kts 137°
2026-05-06 19:27 46.23621 6.10048 1421 ft 7 kts 89°
2026-05-06 19:27 46.23633 6.10088 1415 ft 15 kts 49°
2026-05-06 19:27 46.23642 6.10103 1412 ft 0 kts 45°
2026-05-06 19:28 46.23687 6.10166 1404 ft 15 kts 45°
2026-05-06 19:28 46.23715 6.10209 1405 ft 17 kts 46°
2026-05-06 19:28 46.23753 6.10264 1401 ft 3 kts 45°
2026-05-06 19:28 46.23783 6.10308 1402 ft 7 kts 45°
2026-05-06 19:29 46.23837 6.10386 1402 ft 10 kts 46°
2026-05-06 19:29 46.23909 6.10493 1405 ft 19 kts 46°
2026-05-06 19:29 46.23978 6.10593 1405 ft 0 kts 44°
2026-05-06 19:29 46.23986 6.10605 1403 ft 1 kts 43°
2026-05-06 19:30 46.24006 6.10631 1389 ft 5 kts 43°
2026-05-06 19:30 46.24034 6.10696 1384 ft 0 kts 96°
2026-05-06 19:30 46.24014 6.10744 1379 ft 21 kts 133°
2026-05-06 19:30 46.23954 6.10827 1378 ft 1 kts 132°
2026-05-06 19:31 46.23916 6.10884 1379 ft 0 kts 135°
2026-05-06 19:33 46.23916 6.10885 1379 ft 0 kts 135°
2026-05-06 19:34 46.23911 6.10891 1379 ft 5 kts 135°
2026-05-06 19:34 46.23872 6.10942 1378 ft 7 kts 161°
2026-05-06 19:34 46.23830 6.10931 1374 ft 16 kts 220°
2026-05-06 19:34 46.23668 6.10694 1376 ft 49 kts 226°
2026-05-06 19:35 46.23359 6.10239 1397 ft 82 kts 225°
2026-05-06 19:35 46.22808 6.09433 1481 ft 149 kts 225°
2026-05-06 19:35 46.22019 6.08280 2103 ft 167 kts 223°
2026-05-06 19:35 46.21128 6.07098 2686 ft 179 kts 220°
2026-05-06 19:36 46.20168 6.05899 3330 ft 187 kts 221°
2026-05-06 19:36 46.19154 6.04592 3954 ft 194 kts 221°
2026-05-06 19:36 46.18187 6.03356 4581 ft 177 kts 221°
2026-05-06 19:36 46.17611 6.01925 5153 ft 167 kts 264°
2026-05-06 19:37 46.18078 6.00317 5763 ft 193 kts 313°
2026-05-06 19:37 46.19367 5.99524 6397 ft 218 kts 354°
2026-05-06 19:37 46.20867 6.00094 7006 ft 233 kts 29°
2026-05-06 19:37 46.22220 6.01447 7646 ft 240 kts 36°
2026-05-06 19:38 46.23534 6.02967 8302 ft 245 kts 40°
2026-05-06 19:38 46.24818 6.04559 8920 ft 250 kts 34°
2026-05-06 19:38 46.26442 6.05738 9054 ft 269 kts 24°
2026-05-06 19:38 46.27899 6.07398 9708 ft 267 kts 45°
2026-05-06 19:39 46.29290 6.09149 10328 ft 265 kts 37°
2026-05-06 19:39 46.30710 6.10855 10949 ft 265 kts 42°
2026-05-06 19:39 46.32037 6.12715 11578 ft 265 kts 43°
2026-05-06 19:39 46.33375 6.14543 12219 ft 264 kts 42°
2026-05-06 19:40 46.34719 6.16357 12869 ft 264 kts 42°
2026-05-06 19:40 46.36066 6.18154 13533 ft 262 kts 41°
2026-05-06 19:40 46.37415 6.19926 14149 ft 261 kts 40°
2026-05-06 19:40 46.38617 6.21865 14740 ft 259 kts 57°
2026-05-06 19:41 46.39509 6.24123 15357 ft 257 kts 61°
2026-05-06 19:41 46.40386 6.26386 15988 ft 260 kts 60°
2026-05-06 19:41 46.41400 6.28685 16644 ft 282 kts 57°
2026-05-06 19:41 46.42535 6.31129 17321 ft 302 kts 57°
2026-05-06 19:42 46.43717 6.33754 17910 ft 323 kts 57°
2026-05-06 19:42 46.45000 6.36628 18123 ft 351 kts 57°
2026-05-06 19:42 46.46336 6.39635 18513 ft 367 kts 57°
2026-05-06 19:42 46.47758 6.42805 18896 ft 381 kts 57°
2026-05-06 19:43 46.49220 6.46067 19275 ft 391 kts 58°
2026-05-06 19:43 46.50712 6.49420 19662 ft 400 kts 58°
2026-05-06 19:43 46.52233 6.52849 20054 ft 408 kts 58°
2026-05-06 19:43 46.53788 6.56332 20445 ft 414 kts 58°
2026-05-06 19:44 46.55363 6.59864 20839 ft 418 kts 59°
2026-05-06 19:44 46.56937 6.63433 21237 ft 421 kts 59°
2026-05-06 19:44 46.58533 6.67020 21638 ft 424 kts 59°
2026-05-06 19:44 46.60127 6.70630 22056 ft 425 kts 59°
2026-05-06 19:45 46.61730 6.74250 22454 ft 427 kts 59°
2026-05-06 19:45 46.63339 6.77892 22868 ft 427 kts 59°
2026-05-06 19:45 46.64941 6.81539 23288 ft 428 kts 59°
2026-05-06 19:45 46.66556 6.85189 23672 ft 429 kts 59°
2026-05-06 19:46 46.68162 6.88853 24024 ft 429 kts 60°
2026-05-06 19:46 46.69776 6.92521 24363 ft 430 kts 60°
2026-05-06 19:46 46.71386 6.96199 24721 ft 432 kts 60°
2026-05-06 19:46 46.73004 6.99896 25084 ft 434 kts 60°
2026-05-06 19:47 46.74632 7.03606 25455 ft 435 kts 60°
2026-05-06 19:47 46.76255 7.07339 25798 ft 437 kts 60°
2026-05-06 19:47 46.77894 7.11080 26176 ft 438 kts 60°
2026-05-06 19:47 46.79526 7.14826 26559 ft 438 kts 60°
2026-05-06 19:48 46.81160 7.18591 26939 ft 439 kts 60°
2026-05-06 19:48 46.82800 7.22361 27317 ft 440 kts 60°
2026-05-06 19:48 46.84442 7.26147 27711 ft 441 kts 60°
2026-05-06 19:48 46.86087 7.29929 28115 ft 442 kts 60°
2026-05-06 19:49 46.87728 7.33743 28515 ft 443 kts 60°
2026-05-06 19:49 46.89380 7.37557 28891 ft 445 kts 61°
2026-05-06 19:49 46.91032 7.41391 29315 ft 448 kts 62°
2026-05-06 19:49 46.92698 7.45257 29733 ft 451 kts 61°
2026-05-06 19:50 46.94369 7.49149 30126 ft 453 kts 62°
2026-05-06 19:50 46.96056 7.53059 30504 ft 455 kts 61°
2026-05-06 19:50 46.97739 7.56987 30876 ft 456 kts 61°
2026-05-06 19:50 46.99426 7.60923 31246 ft 457 kts 61°
2026-05-06 19:51 47.01109 7.64872 31616 ft 457 kts 61°
2026-05-06 19:51 47.02804 7.68822 31993 ft 458 kts 61°
2026-05-06 19:51 47.04495 7.72786 32379 ft 458 kts 61°
2026-05-06 19:51 47.06183 7.76759 32780 ft 459 kts 61°
2026-05-06 19:52 47.07851 7.80675 33166 ft 459 kts 61°
2026-05-06 19:52 47.09538 7.84655 33571 ft 459 kts 60°
2026-05-06 19:52 47.11230 7.88630 33898 ft 461 kts 60°
2026-05-06 19:52 47.12929 7.92658 33897 ft 464 kts 61°
2026-05-06 19:53 47.16306 8.00576 33893 ft 452 kts 60°
2026-05-06 19:53 47.19620 8.08326 33886 ft 444 kts 61°
2026-05-06 19:54 47.22870 8.15975 33886 ft 439 kts 61°
2026-05-06 19:54 47.26089 8.23550 33884 ft 435 kts 61°
2026-05-06 19:55 47.29237 8.31107 33870 ft 429 kts 65°
2026-05-06 19:55 47.30354 8.35131 33886 ft 422 kts 77°
2026-05-06 19:55 47.31014 8.39308 33885 ft 416 kts 85°
2026-05-06 19:56 47.32089 8.47699 33889 ft 417 kts 84°
2026-05-06 19:56 47.33183 8.56093 33885 ft 417 kts 84°
2026-05-06 19:57 47.34255 8.64487 33884 ft 416 kts 84°
2026-05-06 19:57 47.35332 8.72878 33883 ft 416 kts 84°
2026-05-06 19:58 47.36392 8.81260 33887 ft 416 kts 84°
2026-05-06 19:58 47.37455 8.89674 33883 ft 418 kts 84°
2026-05-06 19:59 47.38511 8.98111 33881 ft 418 kts 85°
2026-05-06 19:59 47.39567 9.06555 33873 ft 419 kts 85°
2026-05-06 20:00 47.40612 9.15034 33874 ft 422 kts 85°
2026-05-06 20:00 47.41228 9.23564 33864 ft 414 kts 98°
2026-05-06 20:01 47.41159 9.32107 33867 ft 418 kts 97°
2026-05-06 20:01 47.41087 9.40655 33881 ft 420 kts 97°
2026-05-06 20:02 47.41009 9.49287 33889 ft 421 kts 97°
2026-05-06 20:02 47.40921 9.57928 33893 ft 421 kts 97°
2026-05-06 20:03 47.41069 9.66598 33878 ft 428 kts 86°
2026-05-06 20:03 47.42318 9.75231 33878 ft 431 kts 83°
2026-05-06 20:04 47.43578 9.83885 33874 ft 431 kts 83°
2026-05-06 20:04 47.44840 9.92546 33880 ft 432 kts 83°
2026-05-06 20:05 47.46091 10.01224 33875 ft 432 kts 83°
2026-05-06 20:05 47.47334 10.09895 33887 ft 431 kts 83°
2026-05-06 20:06 47.48574 10.18598 33880 ft 434 kts 83°
2026-05-06 20:06 47.49812 10.27325 33872 ft 434 kts 83°
2026-05-06 20:07 47.51043 10.36061 33873 ft 434 kts 83°
2026-05-06 20:07 47.52272 10.44821 33861 ft 435 kts 83°
2026-05-06 20:08 47.53493 10.53583 33859 ft 434 kts 83°
2026-05-06 20:08 47.54708 10.62337 33846 ft 434 kts 83°
2026-05-06 20:09 47.55912 10.71095 33840 ft 434 kts 83°
2026-05-06 20:09 47.57104 10.79807 33821 ft 435 kts 83°
2026-05-06 20:10 47.58294 10.88568 33824 ft 433 kts 83°
2026-05-06 20:10 47.59474 10.97296 33804 ft 431 kts 83°
2026-05-06 20:11 47.60648 11.05998 33816 ft 430 kts 83°
2026-05-06 20:11 47.61808 11.14702 33809 ft 431 kts 83°
2026-05-06 20:12 47.62967 11.23418 33807 ft 431 kts 83°
2026-05-06 20:12 47.64117 11.32159 33802 ft 432 kts 83°
2026-05-06 20:13 47.65262 11.40895 33795 ft 431 kts 83°
2026-05-06 20:13 47.66403 11.49624 33791 ft 432 kts 83°
2026-05-06 20:14 47.67532 11.58373 33785 ft 431 kts 83°
2026-05-06 20:14 47.68662 11.67127 33760 ft 432 kts 83°
2026-05-06 20:15 47.69779 11.75890 33763 ft 432 kts 83°
2026-05-06 20:15 47.71035 11.84609 33730 ft 432 kts 80°
2026-05-06 20:16 47.72305 11.93261 33747 ft 431 kts 81°
2026-05-06 20:16 47.73602 12.01953 33748 ft 431 kts 81°
2026-05-06 20:17 47.74884 12.10665 33720 ft 432 kts 81°
2026-05-06 20:17 47.75953 12.17967 33727 ft 432 kts 81°
2026-05-06 20:18 47.77220 12.26638 33712 ft 432 kts 81°
2026-05-06 20:18 47.78483 12.35358 33720 ft 432 kts 81°
2026-05-06 20:19 47.79752 12.44143 33702 ft 432 kts 81°
2026-05-06 20:19 47.81004 12.52874 33704 ft 431 kts 81°
2026-05-06 20:20 47.82246 12.61597 33703 ft 431 kts 81°
2026-05-06 20:20 47.83479 12.70281 33703 ft 431 kts 81°
2026-05-06 20:21 47.84543 12.79035 33754 ft 432 kts 87°
2026-05-06 20:21 47.85483 12.87978 33690 ft 441 kts 86°
2026-05-06 20:22 47.86435 12.97038 33684 ft 445 kts 87°
2026-05-06 20:22 47.87380 13.06171 33686 ft 447 kts 86°
2026-05-06 20:23 47.88330 13.15359 33689 ft 449 kts 86°
2026-05-06 20:23 47.89268 13.24570 33673 ft 450 kts 87°
2026-05-06 20:24 47.90201 13.33787 33683 ft 449 kts 88°
2026-05-06 20:24 47.91128 13.43004 33682 ft 450 kts 87°
2026-05-06 20:25 47.91816 13.52216 33679 ft 440 kts 98°
2026-05-06 20:25 47.91754 13.61348 33680 ft 441 kts 97°
2026-05-06 20:26 47.91725 13.70413 33679 ft 439 kts 98°
2026-05-06 20:26 47.91668 13.79517 33682 ft 439 kts 97°
2026-05-06 20:27 47.91613 13.88630 33695 ft 439 kts 98°
2026-05-06 20:27 47.91546 13.97734 33698 ft 440 kts 98°
2026-05-06 20:28 47.91476 14.06840 33703 ft 440 kts 97°
2026-05-06 20:28 47.91394 14.15930 33692 ft 439 kts 97°
2026-05-06 20:29 47.91308 14.25017 33704 ft 438 kts 97°
2026-05-06 20:29 47.91215 14.34109 33708 ft 439 kts 98°
2026-05-06 20:30 47.91063 14.47808 33705 ft 437 kts 97°
2026-05-06 20:30 47.91023 14.52231 33629 ft 418 kts 98°
2026-05-06 20:31 47.90962 14.56536 32931 ft 415 kts 97°
2026-05-06 20:31 47.90901 14.60819 32131 ft 411 kts 97°
2026-05-06 20:31 47.90845 14.65057 31358 ft 407 kts 97°
2026-05-06 20:31 47.90788 14.69249 30605 ft 402 kts 97°
2026-05-06 20:32 47.90735 14.73396 29885 ft 397 kts 97°
2026-05-06 20:32 47.90678 14.77430 29062 ft 392 kts 97°
2026-05-06 20:32 47.90615 14.81513 28224 ft 387 kts 97°
2026-05-06 20:32 47.90564 14.85490 27428 ft 381 kts 97°
2026-05-06 20:33 47.90485 14.89415 26658 ft 377 kts 97°
2026-05-06 20:33 47.90432 14.93301 25898 ft 374 kts 96°
2026-05-06 20:33 47.90372 14.97157 25131 ft 370 kts 97°
2026-05-06 20:33 47.90311 15.00972 24418 ft 367 kts 96°
2026-05-06 20:34 47.90245 15.04759 23724 ft 364 kts 97°
2026-05-06 20:34 47.90178 15.08515 22989 ft 361 kts 96°
2026-05-06 20:34 47.90117 15.12232 22190 ft 357 kts 96°
2026-05-06 20:34 47.90052 15.15917 21404 ft 355 kts 96°
2026-05-06 20:35 47.89987 15.19514 20652 ft 350 kts 96°
2026-05-06 20:35 47.89924 15.23027 20546 ft 329 kts 96°
2026-05-06 20:35 47.89876 15.26344 20531 ft 309 kts 96°
2026-05-06 20:35 47.89842 15.29435 20530 ft 292 kts 96°
2026-05-06 20:36 47.89818 15.32393 20529 ft 276 kts 97°
2026-05-06 20:36 47.89806 15.35182 20530 ft 262 kts 97°
2026-05-06 20:36 47.89867 15.37840 20529 ft 252 kts 92°